sat.trackr.live / text

‹ back to catalog

STARLINK-5785

NORAD 56031 · 2023-042AX

PAYLOAD ACTIVE UNKNOWN

§ Identity

Operator
Country
US
Launch date
2023-03-24
Launch site
AFETR
Launch vehicle
Mass (kg)
RCS (m²)

Purposes: comms

External: N2YO · Heavens-Above · Gunter

§ Orbital elements

Epoch: 2026-05-24T21:41:00.430944Z

Period
94.27 min
Inclination
43.0052°
Eccentricity
0.0001336
Mean motion
15.27574876 rev/d
Perigee alt
482.1 km
Apogee alt
484.0 km
Semi-major
6,861.2 km
B*
-1.8492e-6
RAAN
334.6173°
Arg perigee
262.7163°
Mean anomaly
97.3537°
Rev number
17,469

§ Raw data

STARLINK-57851 56031U 23042AX  26144.90347721 -.00000313  00000+0 -18492-5 0  99932 56031  43.0052 334.6173 0001336 262.7163  97.3537 15.27574876174691

JSON: /api/v1/satellites/56031 · /tle

For live sub-satellite position, see the globe view (requires WebGL).

§ Visibility from observer

Set your observer location to see the next 7 days of passes ≥ 10°. The values pass through the URL so the page stays shareable.

No JS? Fill the form by hand. The geolocation button needs JavaScript.